Starlink 34029

operational
NORAD ID: 63805 Int'l Des: 2025-092 Owner: SPXS Country: US Constellation: starlink
LEOCIRCULAR

About Starlink 34029

Description loading...

Live Position

Loading 3D Globe...

Upcoming Passes

Altitude History

Altitude vs Time

uPlot chart will show altitude changes over time

Two-Line Element Set

1 63805U 25092B 26035.62440961 .00031744 00000-0 11586-2 0 9990
2 63805 43.0048 359.6355 0001354 260.8004 99.2695 15.27565522 43559
Epoch: Feb 4, 2026 • Age: 15 hours

Current Status

Altitude 484.0 km
Velocity 7.63 km/s
Sub-Earth Point 29.07°N, 81.02°W
Launch Date May 4, 2025
Age 0.7 years
Type internet

Technical Details

Classification Payload
Mass 575.00 kg
Dry Mass 530.00 kg
Total Mass 575.00 kg
Length 0.30 m
Diameter 4.10 m
Span 29.00 m
Shape Box + pan
Manufacturer SPXS
Bus Type Starlink V2MO
Phase Status In Orbit
Owner/State SPXS/US

Large Constellations

Loading constellations...